Regional Weather Roundup
Issued by NWS Charleston, SC

Current Version | Previous Version | Text Only | Print | Product List | Glossary Off
Versions: 1 2 3 4 5 6 7 8 9 10 11 12 13 14 15 16 17 18 19 20 21 22 23 24 25 26 27 28 29 30 31 32 33 34 35 36 37 38 39 40 41 42 43 44 45 46 47 48 49 50
000 ASUS42 KCHS 300327 RWRCHS Regional Weather Roundup National Weather Service Charleston SC 1100 PM EDT WED JUN 29 2022 NOTE: "fair" indicates few or no clouds below 12,000 feet with no significant weather and/or obstructions to visibility. Not all stations are quality controlled. Use data with caution, especially dewpoint observations. SCZ027-030-031-034>040-042>050-300400- ...Southeast South Carolina... CITY SKY/WX TMP DP RH WIND PRES REMARKS N Charleston CLOUDY 75 73 93 E5 30.22S Waterfront Prk N/A 78 74 87 NE5 30.07R Mount Pleasant MOCLDY 73 73 100 CALM 30.22S FOG Johns Island FAIR 75 75 100 CALM 30.22F Pinopolis N/A 75 73 94 CALM 30.15S Moncks Corner FAIR 72 72 100 CALM 30.23S FOG Summerville FAIR 75 75 100 CALM 30.22S Beaufort MCAS MOCLDY 76 73 91 NE3 30.22R Beaufort Arpt FAIR 77 72 83 NE3 30.22S Hilton Head Is CLOUDY 79 75 89 CALM 30.23 Walterboro CLOUDY 72 72 100 CALM 30.24S Allendale FAIR 75 75 100 CALM 30.23R ...Southern Midlands and Pee Dee... CITY SKY/WX TMP DP RH WIND PRES REMARKS Georgetown FAIR 72 70 94 CALM 30.23S Kingstree FAIR 70 68 94 CALM 30.23F Orangeburg CLOUDY 74 73 97 CALM 30.24R Barnwell FAIR 75 72 88 CALM 30.24R Aiken FAIR 74 71 89 CALM 30.26R Manning FAIR 70 70 100 CALM 30.24R Columbia MOCLDY 75 72 90 SE3 30.23R Sumter MOCLDY 73 72 96 CALM 30.23R Florence PTCLDY 75 72 90 E3 30.24R Myrtle Beach MOCLDY 79 73 82 SE3 30.23R N Myrtle Beach MOCLDY 76 73 91 CALM 30.23S $$ GAZ063-065-086>088-099>101-113>116-118-119-134>141-150-300400- ...Southeast Georgia... CITY SKY/WX TMP DP RH WIND PRES REMARKS Savannah Arpt MOCLDY 75 73 93 N6 30.22R Hunter AAF PTCLDY 75 75 100 NE5 30.19 Fort Stewart MOCLDY 75 73 95 N5 30.19R Statesboro MOCLDY 73 70 92 CALM 30.24R Sylvania NOT AVBL Claxton FAIR 74 73 96 CALM 30.23R Millen FAIR 74 72 93 CALM 30.24S Metter FAIR 72 N/A N/A CALM 30.23S Reidsville CLOUDY 73 N/A N/A NE5 30.23R FOG ...CSRA, Central and far Southeast Georgia... CITY SKY/WX TMP DP RH WIND PRES REMARKS Thomson MOCLDY 74 71 90 CALM 30.24S Augusta-Bush MOCLDY 73 72 96 CALM 30.23R Augusta-Daniel MOCLDY 78 71 79 SE6 30.24R Swainsboro FAIR 73 72 94 CALM 30.24S Vidalia CLOUDY 75 73 94 E5 30.23S Eastman FAIR 72 72 100 CALM 30.24R Hazlehurst MOCLDY 73 72 98 CALM 30.22R Alma MOCLDY N/A N/A N/A CALM 30.22R Waycross DRIZZLE N/A N/A N/A CALM 30.21F Jesup MOCLDY 75 72 88 CALM 30.24R Baxley FAIR 72 72 100 CALM 30.22S Brunswick MOCLDY 74 74 99 CALM 30.20S Saint Simons MOCLDY 83 74 74 E5 30.19R $$ SCZ027-028-034-036>038-045-046-048>050-GAZ119-141-300400- ...Lake and Supplemental Coastal Observations... STATION/POSITION TIME TEMP WIND PRES WAVE SWELL AIR SEA DIR/SP/G HT/PER HT/PER/DIR (UTC) (F) (DEG/KT/KT) (MB) (FT/S) (FT/S/D) Winyah Bay 0245 77 300/ 1 1023.0S Lake Murray 0320 78 140/ 3/ 5 N/A Chrlstn Harbor 0248 77 84 20/ 5/ 7 1022.0R ACE Basin NERRS 0230 74 CALM 1024.0S Fort Pulaski 0248 84 90/ 8/ 10 1023.3R Sapelo Island 0300 79 90/ 2 1022.0 $$ ANZ835-935-AMZ111-154-330-350-352-354-370-450-454-472-300400- ...C-MAN and Buoy Observations... STATION/POSITION TIME TEMP WIND PRES WAVE SWELL AIR SEA DIR/SP/G HT/PER HT/PER/DIR (UTC) (F) (DEG/KT/KT) (MB) (FT/S) (FT/S/D) Buoy 41004 0310 81 82 100/ 6/ 8 1023.0 Buoy 41008 0250 82 84 100/ 10/ 12 1021.8R 3/ 4 2/110/ 8 Folly Beach CMAN 0300 80 100/ 8/ 9 1023.5S Chas Pilot Buoy 0308 80 81 80/ 8/ 12 1023.0S Chas Pilot Wave 0217 80 N/A 2/ 8 Capers Nearshore 0308 80 82 90/ 8/ 12 1022.9F Capers NS Wave 0235 81 N/A 2/ 8 Fripp Nearshore 0308 80 83 70/ 10/ 16 1022.8R STATION/POSITION TIME TEMP WIND PRES WAVE SWELL AIR SEA DIR/SP/G HT/PER HT/PER/DIR (UTC) (F) (DEG/KT/KT) (MB) (FT/S) (FT/S/D) 5E St. Marys GA 0300 83 85 N/A 2/ 8 Frying Pan Buoy 0310 80 81 140/ 6/ 8 1023.5 Buoy 41025 0310 81 150/ 8/ 12 1023.9 Cape Lookout NC 0300 77 140/ 7/ 7 1024.3S Buoy 41002 0300 81 83 200/ 6/ 10 1023.1 Buoy 41010 0300 81 82 110/ 8/ 10 1022.4 St Augustine FL 0300 82 87 110/ 7/ 7 1022.2R $$

USA.gov is the U.S. government's official web portal to all federal, state and local government web resources and services.